Wind_Speed
10 10 8 6 6 7 6 6 8 10 12 13 13 11 10 11 11 10 9 7 6 5 5 4 2 1 1 3 4 3 2 7 7 9 9 10 11 9 7 15 13 9 9 7 8
12 13 13 14 14 14 14 15 16 16 15 14 12 11 10 10 9 8 7 7 6 5 3 2 1 3 4 5 6 6 5 11 7 9 9 8 10 13 11 12 12 11 10 8 8
10 10 12 13 14 15 16 15 14 13 11 10 9 7 7 5 6 7 7 6 6 5 4 4 4 5 7 7 7 8 9 9 9 9 8 10 11 13 11 9 4 12 10 9 9
7 7 8 9 10 10 10 10 9 8 7 6 6 5 5 4 4 5 5 6 6 6 6 6 6 6 7 11 11 10 12 11 11 10 8 10 11 9 6 12 8 14 11 10 8
2 3 4 4 4 3 3 3 2 2 3 3 3 3 3 2 2 2 3 5 6 6 6 7 8 8 9 13 13 13 13 14 14 13 10 10 9 7 8 13 14 13 10 9 8
3 3 4 5 5 5 5 4 4 3 3 3 1 1 1 1 2 3 3 5 6 7 7 9 9 10 12 14 13 13 15 13 11 11 9 8 8 9 10 10 10 10 9 10 9
8 8 8 8 8 9 9 8 8 8 7 7 6 5 5 4 5 5 5 5 6 8 7 9 9 10 11 12 11 12 15 16 16 12 9 8 5 11 9 10 8 8 9 9 8
9 8 8 9 10 11 11 11 10 10 9 9 9 8 9 8 8 8 7 6 6 8 8 9 8 8 9 10 10 8 10 10 16 12 11 8 7 9 13 12 10 10 9 8 8
8 8 9 9 9 10 10 11 12 12 12 12 12 12 12 11 11 10 10 7 7 8 10 9 9 7 7 7 5 12 6 12 14 17 13 10 11 10 13 15 14 12 11 8 8
13 13 13 13 12 12 13 13 13 14 14 14 14 14 13 13 13 11 10 7 7 9 11 10 9 7 7 5 7 15 10 9 7 11 14 11 12 11 15 13 11 11 10 9 10
22 21 19 17 15 13 12 12 11 11 11 11 11 11 10 11 10 10 9 7 9 10 13 11 9 6 2 19 16 12 10 8 9 12 9 8 9 13 10 6 9 9 10 10 10
22 23 25 25 23 20 17 15 13 12 12 11 10 9 8 8 8 7 8 9 10 11 12 10 9 8 14 11 9 5 3 12 11 11 9 8 9 11 14 10 9 9 9 13 11
13 13 15 17 22 26 24 21 18 16 17 15 14 12 9 9 8 8 10 12 12 12 12 9 4 9 12 10 4 6 6 13 17 9 9 7 10 7 13 19 14 10 9 8 8
13 12 12 12 14 17 23 27 25 22 22 23 18 16 14 14 13 12 13 12 13 12 11 8 10 10 10 7 5 6 12 12 11 12 10 6 15 9 8 14 19 18 10 8 6
14 13 11 13 12 11 12 14 17 22 17 27 22 20 20 18 16 15 14 14 13 11 9 9 10 11 11 7 10 7 17 10 4 13 8 14 11 7 6 11 14 16 14 8 8
11 11 12 11 11 13 14 14 12 12 14 25 20 17 16 14 13 13 11 11 10 10 10 10 9 12 10 10 7 8 5 8 8 4 14 11 16 12 12 4 7 13 13 8 5
9 8 8 9 12 14 14 12 10 10 20 21 17 15 13 12 13 12 9 8 8 9 9 11 10 13 11 11 5 3 3 7 9 9 13 11 10 13 7 6 9 13 9 9 7
7 4 4 6 7 4 8 9 9 11 12 14 14 13 11 11 11 9 7 6 5 6 8 11 13 11 10 10 9 8 7 9 3 7 11 3 6 7 10 8 8 10 10 9 11
4 3 3 5 4 1 4 7 9 9 9 9 11 12 12 12 11 10 8 6 7 4 9 7 10 13 13 11 8 3 7 8 11 8 9 13 16 13 14 6 8 7 8 6 5
3 3 4 4 4 2 3 6 7 11 11 10 8 11 12 14 15 12 11 7 8 11 8 7 10 15 13 14 9 8 12 7 4 5 6 13 7 20 8 7 11 7 7 4 3
3 4 3 3 3 2 2 5 6 8 11 14 14 12 12 13 17 14 9 11 12 9 11 12 9 10 15 11 7 10 6 7 10 11 12 6 10 4 9 12 16 10 7 5 3
4 5 5 6 5 5 8 8 8 9 11 12 13 14 14 18 20 18 17 13 24 16 11 11 9 13 11 7 11 15 9 8 7 6 8 11 19 7 7 11 19 17 13 9 7
5 7 6 6 7 8 11 13 15 14 14 14 16 17 20 20 20 19 19 26 29 17 19 13 16 15 13 14 17 13 11 10 10 10 12 6 10 12 21 23 17 14 11 11 8
5 7 7 8 7 9 11 14 17 17 20 20 19 19 20 22 23 24 25 31 28 26 28 26 20 18 17 23 32 19 17 10 13 15 13 14 12 19 17 12 20 10 11 11 12
7 8 8 10 11 12 14 18 18 21 22 22 24 25 24 23 25 26 26 32 26 34 38 36 30 28 23 22 24 16 12 12 15 19 19 19 22 20 23 26 12 5 12 12 9
11 11 13 14 17 19 20 20 21 24 21 26 29 29 27 28 29 30 30 31 31 30 29 29 34 34 27 28 26 22 18 19 24 20 17 21 23 26 9 25 18 18 16 14 12
15 17 17 17 18 21 23 25 26 25 25 26 28 30 31 38 34 31 32 32 31 32 26 29 32 29 27 22 27 32 28 24 24 22 23 21 16 21 22 25 20 18 14 19 17
Wind_Direction
90 90 92 109 132 139 131 122 114 108 102 100 101 98 95 98 98 89 87 81 68 56 61 65 78 215 260 281 288 301 91 278 293 279 289 297 293 294 290 260 277 298 290 265 267
86 88 89 91 98 105 106 105 103 100 98 98 97 91 92 102 84 74 69 64 57 36 43 55 242 269 266 259 264 264 245 258 268 279 299 299 289 294 294 288 293 293 286 268 263
86 91 96 99 103 106 106 105 99 94 86 83 86 89 90 97 83 73 68 59 45 35 359 332 297 278 273 263 258 265 260 261 261 275 295 295 287 284 272 282 296 298 265 252 252
94 99 104 107 111 112 112 111 103 93 80 72 82 95 105 109 97 74 57 49 24 8 345 327 303 282 268 269 268 262 261 259 265 279 291 297 289 275 249 212 237 285 252 243 231
105 128 140 142 142 136 129 125 110 81 56 45 69 91 104 110 97 49 42 34 21 1 337 311 294 280 264 262 258 256 253 254 268 273 289 293 290 255 243 257 275 261 238 230 218
269 249 234 220 222 225 234 243 254 269 284 297 284 254 242 277 303 336 355 12 7 349 324 303 296 281 270 266 260 264 253 251 257 268 288 290 270 232 240 265 257 247 231 221 223
277 270 258 250 246 246 246 249 258 264 265 268 266 260 267 284 295 309 320 342 350 338 313 305 290 282 278 272 268 261 260 255 285 266 278 278 265 258 256 266 271 252 228 219 221
268 265 263 256 254 252 252 255 252 255 261 261 261 257 262 274 284 292 302 313 328 329 303 304 290 288 283 284 272 270 278 276 294 259 262 264 286 277 253 268 263 247 236 229 222
262 258 262 262 261 258 254 252 254 258 262 263 262 262 267 273 274 282 284 295 309 312 293 296 294 293 295 294 330 320 285 278 264 267 266 265 271 269 263 251 257 245 235 232 225
261 260 257 259 259 260 261 262 262 263 261 261 263 267 268 268 272 271 277 283 300 302 295 285 292 288 278 308 282 239 259 271 270 267 262 269 251 290 277 264 263 249 237 228 223
260 258 257 254 255 256 257 255 251 252 251 256 260 263 265 263 265 270 272 283 297 296 297 292 288 273 214 242 259 256 261 262 276 258 268 270 279 286 293 295 264 260 249 239 236
269 265 261 256 252 250 251 252 251 254 257 258 263 268 264 260 258 266 273 292 296 295 298 292 289 254 247 265 282 288 326 272 299 264 281 291 304 302 298 293 292 285 268 263 251
276 272 266 261 254 250 249 251 253 253 258 256 257 262 265 268 264 274 282 289 289 290 296 282 288 257 251 265 278 300 237 284 256 267 264 259 291 284 283 297 301 304 302 294 280
284 276 268 261 257 252 248 249 253 254 261 258 259 263 264 269 272 274 278 280 283 285 288 275 249 247 247 244 254 256 249 255 249 200 286 224 292 208 283 297 302 298 309 299 288
283 285 275 263 257 266 265 261 257 256 264 269 259 264 266 269 271 271 272 275 275 272 276 265 248 239 235 226 251 215 257 235 297 269 260 247 221 340 13 312 291 295 296 312 304
287 278 272 272 271 269 268 261 255 249 250 259 270 266 263 262 261 264 266 266 265 262 264 254 263 242 224 242 223 220 162 21 356 36 271 280 209 293 292 282 319 315 278 285 280
297 295 283 276 280 277 258 250 240 227 255 275 263 260 255 251 256 258 257 263 270 266 272 260 252 238 224 223 227 249 118 288 275 312 292 29 349 283 297 303 304 313 280 252 265
319 310 296 306 301 280 233 229 233 244 259 286 270 259 244 249 252 262 264 270 272 247 222 275 264 299 237 227 195 283 203 279 269 270 317 283 313 273 280 289 288 294 310 264 259
353 351 3 2 359 306 214 211 226 235 267 290 271 246 238 242 249 265 280 279 271 264 217 237 232 259 228 244 218 235 257 232 278 283 283 263 265 319 287 219 274 299 297 286 267
348 3 356 11 21 358 249 255 248 255 262 271 267 259 228 237 244 241 253 264 262 255 251 233 223 236 244 230 237 227 209 242 264 289 273 254 264 262 222 241 253 268 278 278 346
334 335 346 328 332 303 274 279 279 267 264 260 254 264 226 225 253 229 243 263 271 234 249 224 203 240 232 245 224 301 294 244 215 242 243 282 222 59 278 277 245 245 253 279 285
318 308 310 306 296 283 279 285 277 268 264 265 262 247 247 231 221 235 235 244 258 257 248 238 214 237 255 260 251 236 227 268 276 258 235 255 297 300 275 276 240 234 241 241 284
321 317 313 306 301 296 288 283 281 276 269 260 257 256 251 249 248 241 218 236 240 247 239 231 232 233 237 239 261 256 229 234 234 250 263 279 245 245 279 279 270 230 222 243 242
318 316 305 305 301 301 301 297 291 284 277 266 256 255 256 250 249 246 242 246 238 240 242 242 231 234 234 254 228 212 237 235 238 238 250 251 230 279 271 283 286 286 247 258 266
297 297 296 292 289 287 293 300 294 293 275 267 262 257 250 252 248 249 243 250 255 240 242 239 239 231 222 245 280 261 257 261 235 228 236 249 269 189 278 268 282 195 253 262 267
303 299 294 289 293 291 297 298 298 296 284 268 256 255 254 250 247 239 242 241 248 254 245 253 255 238 241 236 249 263 265 259 243 267 241 247 273 289 208 248 253 254 246 256 271
291 301 298 295 294 292 296 298 301 303 288 275 266 252 249 248 253 258 258 257 251 251 252 251 255 257 248 245 250 242 236 245 257 252 254 232 262 253 262 264 253 258 254 237 252
Height
5892 5892 5892 5892 5892 5893 5895 5896 5896 5897 5897 5898 5899 5899 5899 5900 5900 5901 5901 5902 5902 5901 5901 5901 5900 5900 5900 5900 5899 5900 5902 5901 5899 5898 5897 5896 5895 5895 5897 5896 5895 5894 5892 5893 5892
5895 5894 5894 5894 5894 5895 5896 5897 5898 5899 5899 5900 5900 5901 5901 5901 5901 5901 5902 5902 5901 5901 5901 5901 5900 5900 5900 5900 5900 5899 5899 5899 5898 5897 5896 5895 5894 5893 5894 5893 5894 5893 5892 5892 5892
5897 5897 5897 5897 5897 5898 5898 5899 5900 5901 5901 5901 5901 5902 5902 5902 5902 5902 5902 5902 5901 5900 5900 5899 5899 5899 5899 5898 5898 5898 5897 5897 5896 5895 5894 5893 5892 5892 5893 5892 5893 5892 5892 5891 5891
5898 5898 5898 5899 5899 5900 5900 5901 5901 5902 5902 5902 5902 5902 5902 5902 5903 5902 5902 5901 5900 5899 5899 5898 5898 5897 5897 5897 5896 5897 5895 5895 5894 5893 5893 5891 5891 5890 5891 5885 5888 5891 5891 5890 5890
5899 5899 5899 5900 5900 5900 5901 5901 5902 5902 5902 5902 5902 5902 5902 5902 5902 5902 5901 5901 5900 5899 5898 5897 5896 5896 5895 5894 5894 5893 5893 5893 5894 5892 5892 5891 5890 5890 5890 5889 5890 5891 5890 5890 5890
5898 5899 5899 5899 5899 5900 5900 5900 5900 5901 5901 5901 5901 5901 5901 5901 5901 5901 5900 5900 5899 5898 5896 5895 5895 5894 5894 5893 5892 5893 5892 5892 5892 5891 5891 5890 5889 5888 5890 5890 5889 5889 5889 5889 5890
5897 5897 5897 5898 5898 5898 5898 5899 5899 5899 5899 5899 5899 5899 5899 5900 5899 5899 5899 5898 5898 5896 5895 5894 5893 5892 5892 5891 5891 5891 5891 5891 5891 5890 5890 5889 5888 5887 5889 5888 5887 5887 5888 5888 5889
5895 5895 5895 5895 5895 5896 5896 5896 5897 5897 5897 5897 5897 5897 5897 5897 5897 5897 5897 5897 5896 5895 5893 5892 5891 5891 5890 5890 5889 5890 5891 5890 5890 5889 5889 5889 5888 5887 5886 5885 5886 5886 5887 5888 5888
5893 5893 5893 5893 5893 5893 5893 5894 5894 5895 5895 5895 5896 5896 5896 5895 5895 5895 5895 5895 5894 5893 5891 5890 5890 5889 5889 5889 5891 5891 5895 5889 5887 5887 5888 5888 5888 5885 5885 5884 5884 5884 5885 5887 5888
5890 5890 5890 5890 5890 5890 5890 5891 5892 5892 5892 5892 5893 5894 5893 5893 5892 5892 5892 5892 5892 5891 5890 5889 5888 5887 5887 5891 5893 5889 5891 5887 5888 5889 5886 5887 5886 5881 5884 5884 5883 5883 5885 5885 5887
5885 5885 5886 5886 5886 5887 5887 5888 5890 5890 5889 5890 5890 5890 5890 5890 5890 5890 5890 5890 5890 5889 5887 5887 5887 5886 5891 5892 5887 5886 5886 5887 5885 5885 5886 5886 5886 5884 5884 5884 5883 5883 5884 5886 5886
5879 5880 5880 5881 5882 5883 5883 5884 5886 5887 5887 5887 5887 5888 5888 5888 5888 5888 5888 5888 5887 5886 5885 5885 5885 5885 5887 5885 5885 5885 5886 5888 5884 5885 5886 5887 5886 5884 5882 5883 5883 5883 5884 5885 5886
5875 5875 5874 5874 5875 5877 5878 5880 5881 5883 5883 5884 5885 5885 5886 5886 5886 5886 5886 5885 5885 5884 5883 5884 5888 5883 5883 5883 5884 5888 5888 5884 5883 5885 5886 5885 5886 5884 5881 5880 5881 5882 5883 5883 5883
5871 5871 5871 5871 5872 5871 5872 5875 5877 5879 5880 5880 5882 5882 5884 5884 5884 5884 5883 5884 5883 5883 5882 5882 5881 5881 5882 5882 5883 5889 5883 5882 5881 5883 5877 5884 5883 5871 5882 5880 5879 5880 5882 5882 5883
5868 5867 5868 5867 5868 5868 5870 5870 5872 5875 5878 5871 5877 5879 5879 5881 5881 5880 5880 5880 5880 5880 5881 5881 5879 5879 5880 5881 5880 5884 5881 5880 5882 5882 5887 5885 5883 5877 5879 5879 5879 5879 5879 5881 5881
5864 5864 5864 5865 5865 5866 5866 5867 5869 5872 5872 5869 5871 5874 5875 5876 5876 5877 5877 5877 5878 5878 5878 5878 5877 5877 5879 5880 5879 5877 5879 5881 5882 5883 5880 5880 5882 5879 5875 5878 5879 5878 5877 5878 5879
5862 5862 5862 5862 5862 5861 5862 5864 5867 5868 5868 5867 5867 5870 5871 5873 5873 5874 5875 5875 5875 5876 5876 5875 5875 5875 5877 5878 5878 5877 5881 5881 5885 5883 5871 5876 5882 5880 5879 5877 5877 5876 5875 5875 5876
5860 5860 5860 5860 5858 5858 5859 5862 5864 5865 5866 5864 5865 5866 5869 5870 5871 5872 5872 5872 5873 5873 5876 5877 5876 5875 5875 5875 5880 5881 5884 5883 5884 5885 5884 5882 5881 5878 5878 5877 5875 5875 5874 5874 5874
5860 5859 5859 5859 5858 5857 5859 5860 5863 5863 5863 5863 5862 5864 5866 5868 5870 5870 5871 5871 5872 5871 5873 5879 5878 5876 5874 5874 5876 5881 5882 5884 5885 5886 5886 5885 5880 5877 5876 5874 5874 5874 5874 5874 5874
5859 5859 5859 5858 5858 5858 5859 5859 5860 5860 5861 5861 5861 5862 5866 5866 5867 5868 5869 5869 5869 5869 5869 5875 5875 5876 5876 5873 5874 5874 5879 5882 5883 5884 5883 5881 5882 5873 5866 5873 5873 5873 5873 5873 5872
5858 5858 5858 5858 5857 5857 5858 5858 5858 5858 5858 5858 5858 5860 5862 5868 5865 5866 5869 5870 5866 5868 5867 5868 5873 5877 5873 5872 5876 5875 5874 5876 5879 5881 5883 5880 5873 5874 5872 5871 5872 5871 5872 5872 5872
5857 5857 5856 5856 5857 5856 5856 5855 5855 5855 5855 5855 5855 5855 5857 5859 5861 5865 5866 5869 5861 5863 5864 5865 5870 5872 5874 5875 5875 5875 5878 5879 5879 5879 5881 5878 5875 5871 5872 5872 5870 5870 5870 5871 5871
5855 5854 5854 5854 5854 5853 5853 5852 5852 5852 5851 5851 5851 5851 5851 5852 5854 5856 5860 5857 5855 5859 5860 5864 5864 5868 5870 5875 5873 5870 5872 5876 5877 5880 5879 5877 5877 5872 5869 5869 5869 5869 5868 5868 5870
5853 5852 5851 5851 5851 5850 5850 5849 5848 5848 5847 5847 5847 5847 5847 5847 5847 5848 5851 5850 5851 5854 5854 5857 5859 5864 5866 5859 5862 5863 5868 5871 5875 5876 5876 5877 5876 5870 5869 5867 5862 5864 5866 5866 5866
5850 5849 5848 5848 5847 5846 5845 5844 5843 5841 5841 5840 5840 5840 5841 5841 5842 5842 5844 5844 5845 5845 5848 5850 5852 5855 5857 5859 5854 5856 5856 5861 5862 5869 5871 5872 5866 5857 5866 5863 5839 5857 5861 5863 5864
5845 5845 5844 5843 5842 5841 5839 5838 5836 5834 5833 5832 5832 5832 5834 5834 5834 5834 5833 5836 5837 5838 5842 5843 5844 5847 5847 5852 5854 5853 5857 5861 5861 5861 5865 5867 5862 5861 5850 5859 5860 5859 5860 5861 5862
5841 5840 5839 5839 5837 5835 5833 5830 5828 5826 5825 5823 5822 5823 5824 5822 5826 5828 5828 5828 5830 5831 5834 5836 5836 5838 5839 5845 5846 5846 5850 5851 5854 5854 5853 5860 5862 5863 5858 5853 5855 5856 5857 5858 5859